| time (UTC) | temp F | wind direction | speed MPH | gust MPH | rain 1hr in | rain 24hr in | rain mn in | humidity % | barometer mb |
| 20260503023955 | 46 | 218 | 0.0 | 0.0 | 0.00 | 0.01 | 0.01 | 62 | 1015.5 |
| 20260503023451 | 46 | 198 | 0.0 | 1.0 | 0.00 | 0.01 | 0.01 | 62 | 1015.6 |
| 20260503022948 | 46 | 201 | 0.0 | 0.0 | 0.00 | 0.01 | 0.01 | 62 | 1015.5 |
| 20260503022444 | 46 | 197 | 0.0 | 0.0 | 0.00 | 0.01 | 0.01 | 62 | 1015.5 |
| 20260503021940 | 46 | 201 | 0.0 | 0.0 | 0.00 | 0.01 | 0.01 | 61 | 1015.3 |
| 20260503021436 | 47 | 194 | 2.0 | 2.0 | 0.00 | 0.01 | 0.01 | 61 | 1015.4 |
| 20260503020934 | 46 | 192 | 0.0 | 0.0 | 0.00 | 0.01 | 0.01 | 61 | 1015.3 |
| 20260503020431 | 46 | 196 | 1.0 | 2.0 | 0.00 | 0.01 | 0.01 | 62 | 1015.4 |
| 20260503015927 | 46 | 202 | 0.0 | 0.0 | 0.00 | 0.01 | 0.01 | 62 | 1015.3 |
| 20260503015424 | 46 | 210 | 0.0 | 1.0 | 0.00 | 0.01 | 0.01 | 61 | 1015.1 |
| 20260503014920 | 46 | 208 | 0.0 | 0.0 | 0.00 | 0.01 | 0.01 | 61 | 1015.3 |
| 20260503014417 | 47 | 197 | 0.0 | 0.0 | 0.00 | 0.01 | 0.01 | 62 | 1015.5 |
| 20260503013916 | 47 | 197 | 0.0 | 0.0 | 0.00 | 0.01 | 0.01 | 61 | 1015.2 |
| 20260503013412 | 47 | 213 | 0.0 | 0.0 | 0.00 | 0.01 | 0.01 | 60 | 1015.1 |
| 20260503012909 | 47 | 212 | 0.0 | 0.0 | 0.00 | 0.01 | 0.01 | 60 | 1015.2 |
| 20260503012408 | 47 | 213 | 0.0 | 0.0 | 0.00 | 0.01 | 0.01 | 60 | 1015.2 |
| 20260503011903 | 47 | 213 | 0.0 | 0.0 | 0.00 | 0.01 | 0.01 | 59 | 1015.1 |
| 20260503011400 | 48 | 213 | 0.0 | 0.0 | 0.00 | 0.01 | 0.01 | 59 | 1015.2 |
| 20260503010857 | 48 | 210 | 0.0 | 0.0 | 0.00 | 0.01 | 0.01 | 57 | 1015.2 |
| 20260503010354 | 48 | 214 | 0.0 | 0.0 | 0.00 | 0.01 | 0.01 | 57 | 1015.2 |
| 20260503005850 | 48 | 213 | 0.0 | 0.0 | 0.00 | 0.01 | 0.01 | 56 | 1015.4 |
| 20260503005349 | 49 | 213 | 0.0 | 0.0 | 0.00 | 0.01 | 0.01 | 55 | 1015.4 |
| 20260503004844 | 50 | 212 | 0.0 | 0.0 | 0.00 | 0.01 | 0.01 | 53 | 1015.3 |
| 20260503004342 | 50 | 217 | 0.0 | 0.0 | 0.00 | 0.01 | 0.01 | 53 | 1015.3 |
| 20260503003839 | 51 | 205 | 0.0 | 0.0 | 0.00 | 0.01 | 0.01 | 53 | 1015.2 |
| 20260503003336 | 51 | 206 | 0.0 | 1.0 | 0.00 | 0.01 | 0.01 | 52 | 1015.2 |
| 20260503002833 | 51 | 257 | 0.0 | 0.0 | 0.00 | 0.01 | 0.01 | 53 | 1015.3 |
| 20260503002330 | 52 | 237 | 0.0 | 0.0 | 0.00 | 0.01 | 0.01 | 50 | 1015.3 |
| 20260503001827 | 52 | 239 | 1.0 | 1.0 | 0.00 | 0.01 | 0.01 | 51 | 1015.4 |
| 20260503001323 | 53 | 212 | 0.0 | 0.0 | 0.00 | 0.01 | 0.01 | 50 | 1015.2 |
| 20260503000820 | 53 | 253 | 1.0 | 2.0 | 0.00 | 0.01 | 0.01 | 47 | 1015.4 |
| 20260503000319 | 53 | 276 | 1.0 | 1.0 | 0.00 | 0.01 | 0.01 | 48 | 1015.4 |
| 20260502235815 | 53 | 242 | 2.0 | 2.0 | 0.00 | 0.01 | 0.01 | 47 | 1015.5 |
| 20260502235312 | 54 | 260 | 1.0 | 2.0 | 0.00 | 0.01 | 0.01 | 48 | 1015.3 |
| 20260502234809 | 54 | 272 | 1.0 | 1.0 | 0.00 | 0.01 | 0.01 | 46 | 1015.4 |
| 20260502234306 | 54 | 248 | 3.0 | 3.0 | 0.00 | 0.01 | 0.01 | 45 | 1015.5 |
| 20260502233802 | 54 | 272 | 3.0 | 3.0 | 0.00 | 0.01 | 0.01 | 45 | 1015.4 |
| 20260502233258 | 54 | 284 | 4.0 | 5.0 | 0.00 | 0.01 | 0.01 | 46 | 1015.5 |
| 20260502232755 | 54 | 265 | 3.0 | 5.0 | 0.00 | 0.01 | 0.01 | 45 | 1015.6 |
| 20260502232252 | 55 | 289 | 2.0 | 2.0 | 0.00 | 0.01 | 0.01 | 45 | 1015.7 |
| 20260502231748 | 55 | 244 | 3.0 | 5.0 | 0.00 | 0.01 | 0.01 | 45 | 1015.7 |
| 20260502231246 | 55 | 267 | 3.0 | 3.0 | 0.00 | 0.01 | 0.01 | 46 | 1015.7 |
| 20260502230744 | 55 | 259 | 2.0 | 3.0 | 0.00 | 0.01 | 0.01 | 45 | 1015.6 |
| 20260502230242 | 54 | 282 | 3.0 | 5.0 | 0.00 | 0.01 | 0.01 | 44 | 1015.7 |
| 20260502225738 | 54 | 235 | 1.0 | 1.0 | 0.00 | 0.01 | 0.01 | 47 | 1015.7 |
| 20260502225236 | 55 | 296 | 4.0 | 5.0 | 0.00 | 0.01 | 0.01 | 45 | 1015.8 |
| 20260502224732 | 56 | 259 | 1.0 | 2.0 | 0.00 | 0.01 | 0.01 | 44 | 1015.7 |
| 20260502224229 | 56 | 225 | 1.0 | 1.0 | 0.00 | 0.01 | 0.01 | 45 | 1015.9 |
| 20260502223726 | 55 | 335 | 3.0 | 3.0 | 0.00 | 0.01 | 0.01 | 43 | 1015.8 |
| 20260502223224 | 55 | 269 | 1.0 | 1.0 | 0.00 | 0.01 | 0.01 | 46 | 1015.8 |
| 20260502222721 | 56 | 249 | 1.0 | 1.0 | 0.00 | 0.01 | 0.01 | 44 | 1015.6 |
| 20260502222218 | 57 | 13 | 4.0 | 5.0 | 0.00 | 0.01 | 0.01 | 43 | 1015.7 |
| 20260502221714 | 56 | 240 | 3.0 | 5.0 | 0.00 | 0.01 | 0.01 | 41 | 1015.7 |
| 20260502221211 | 56 | 240 | 1.0 | 1.0 | 0.00 | 0.01 | 0.01 | 44 | 1015.7 |
| 20260502220707 | 58 | 17 | 3.0 | 5.0 | 0.00 | 0.01 | 0.01 | 43 | 1016.1 |
| 20260502220203 | 58 | 346 | 2.0 | 3.0 | 0.00 | 0.01 | 0.01 | 43 | 1015.9 |
| 20260502215700 | 56 | 250 | 1.0 | 1.0 | 0.00 | 0.01 | 0.01 | 46 | 1016.1 |
| 20260502215157 | 55 | 313 | 2.0 | 3.0 | 0.00 | 0.01 | 0.01 | 45 | 1016.2 |
| 20260502214655 | 55 | 242 | 1.0 | 1.0 | 0.00 | 0.01 | 0.01 | 47 | 1016.0 |
| 20260502214152 | 55 | 285 | 1.0 | 1.0 | 0.00 | 0.01 | 0.01 | 45 | 1015.9 |
| 20260502213649 | 55 | 222 | 4.0 | 5.0 | 0.00 | 0.01 | 0.01 | 45 | 1016.1 |
| 20260502213146 | 56 | 288 | 1.0 | 2.0 | 0.00 | 0.01 | 0.01 | 48 | 1015.9 |
| 20260502212645 | 57 | 234 | 3.0 | 6.0 | 0.00 | 0.01 | 0.01 | 43 | 1016.3 |
| 20260502212143 | 57 | 154 | 1.0 | 2.0 | 0.00 | 0.01 | 0.01 | 45 | 1016.2 |
| 20260502211638 | 55 | 227 | 0.0 | 1.0 | 0.00 | 0.01 | 0.01 | 47 | 1016.2 |
| 20260502211135 | 55 | 240 | 4.0 | 5.0 | 0.00 | 0.01 | 0.01 | 45 | 1016.4 |
| 20260502210632 | 57 | 310 | 4.0 | 5.0 | 0.00 | 0.01 | 0.01 | 43 | 1016.4 |
| 20260502210129 | 55 | 295 | 4.0 | 5.0 | 0.00 | 0.01 | 0.01 | 44 | 1016.5 |
| 20260502205626 | 54 | 311 | 2.0 | 2.0 | 0.00 | 0.01 | 0.01 | 48 | 1016.6 |
| 20260502205123 | 54 | 255 | 2.0 | 3.0 | 0.00 | 0.01 | 0.01 | 47 | 1016.5 |
| 20260502204620 | 54 | 278 | 1.0 | 2.0 | 0.00 | 0.01 | 0.01 | 47 | 1016.6 |
| 20260502204117 | 55 | 325 | 2.0 | 2.0 | 0.00 | 0.01 | 0.01 | 47 | 1016.5 |
| 20260502203614 | 54 | 273 | 1.0 | 1.0 | 0.00 | 0.01 | 0.01 | 51 | 1016.6 |
| 20260502203106 | 54 | 236 | 0.0 | 1.0 | 0.00 | 0.01 | 0.01 | 46 | 1017.0 |
| 20260502202601 | 55 | 239 | 0.0 | 1.0 | 0.00 | 0.01 | 0.01 | 46 | 1016.8 |
| 20260502202100 | 55 | 269 | 0.0 | 1.0 | 0.00 | 0.01 | 0.01 | 50 | 1016.9 |
| 20260502201555 | 54 | 23 | 1.0 | 1.0 | 0.00 | 0.01 | 0.01 | 50 | 1016.9 |
| 20260502201052 | 55 | 295 | 2.0 | 3.0 | 0.00 | 0.01 | 0.01 | 48 | 1016.9 |
| 20260502200548 | 54 | 240 | 3.0 | 6.0 | 0.00 | 0.01 | 0.01 | 46 | 1017.0 |
| 20260502200046 | 55 | 257 | 1.0 | 2.0 | 0.00 | 0.01 | 0.01 | 48 | 1017.1 |
| 20260502195543 | 56 | 72 | 0.0 | 1.0 | 0.00 | 0.01 | 0.01 | 45 | 1017.0 |
| 20260502195039 | 53 | 358 | 1.0 | 2.0 | 0.00 | 0.01 | 0.01 | 50 | 1017.2 |
| 20260502194536 | 54 | 214 | 1.0 | 2.0 | 0.00 | 0.01 | 0.01 | 49 | 1017.3 |
| 20260502194032 | 54 | 70 | 0.0 | 1.0 | 0.00 | 0.01 | 0.01 | 46 | 1017.2 |
| 20260502193530 | 54 | 262 | 0.0 | 0.0 | 0.00 | 0.01 | 0.01 | 51 | 1017.4 |
| 20260502193026 | 54 | 284 | 2.0 | 3.0 | 0.00 | 0.01 | 0.01 | 47 | 1017.4 |
| 20260502192522 | 54 | 284 | 1.0 | 1.0 | 0.00 | 0.01 | 0.01 | 45 | 1017.4 |
| 20260502192020 | 53 | 238 | 2.0 | 2.0 | 0.00 | 0.01 | 0.01 | 47 | 1017.6 |
| 20260502191516 | 53 | 309 | 3.0 | 5.0 | 0.00 | 0.01 | 0.01 | 47 | 1017.8 |
| 20260502191014 | 53 | 257 | 2.0 | 2.0 | 0.00 | 0.01 | 0.01 | 49 | 1017.5 |
| 20260502190512 | 53 | 221 | 3.0 | 3.0 | 0.00 | 0.01 | 0.01 | 45 | 1017.7 |
| 20260502190008 | 54 | 218 | 3.0 | 3.0 | 0.00 | 0.01 | 0.01 | 48 | 1017.9 |
| 20260502185503 | 54 | 74 | 2.0 | 2.0 | 0.00 | 0.01 | 0.01 | 48 | 1017.9 |
| 20260502185000 | 53 | 304 | 3.0 | 3.0 | 0.00 | 0.01 | 0.01 | 45 | 1017.9 |
| 20260502184455 | 53 | 127 | 1.0 | 1.0 | 0.00 | 0.01 | 0.01 | 48 | 1018.3 |
| 20260502183952 | 54 | 287 | 0.0 | 1.0 | 0.00 | 0.01 | 0.01 | 47 | 1018.0 |
| 20260502183449 | 55 | 221 | 0.0 | 0.0 | 0.00 | 0.01 | 0.01 | 48 | 1018.0 |
| 20260502182944 | 54 | 85 | 3.0 | 5.0 | 0.00 | 0.01 | 0.01 | 45 | 1018.1 |
| 20260502182440 | 56 | 354 | 2.0 | 3.0 | 0.00 | 0.01 | 0.01 | 47 | 1018.2 |
| 20260502181936 | 54 | 286 | 1.0 | 2.0 | 0.00 | 0.01 | 0.01 | 49 | 1018.3 |
| 20260502181434 | 53 | 305 | 2.0 | 2.0 | 0.00 | 0.01 | 0.01 | 48 | 1018.2 |
| 20260502180933 | 53 | 312 | 2.0 | 2.0 | 0.00 | 0.01 | 0.01 | 47 | 1018.2 |
| 20260502180429 | 54 | 324 | 3.0 | 3.0 | 0.00 | 0.01 | 0.01 | 46 | 1018.2 |
| 20260502170348 | 53 | 89 | 2.0 | 2.0 | 0.00 | 0.01 | 0.01 | 49 | 1018.7 |
| 20260502164336 | 53 | 154 | 1.0 | 1.0 | 0.00 | 0.01 | 0.01 | 50 | 1018.9 |
| 20260502163831 | 51 | 229 | 1.0 | 1.0 | 0.00 | 0.01 | 0.01 | 53 | 1019.0 |
| 20260502163328 | 51 | 300 | 2.0 | 2.0 | 0.00 | 0.01 | 0.01 | 49 | 1019.3 |
| 20260502162825 | 52 | 205 | 1.0 | 2.0 | 0.00 | 0.01 | 0.01 | 50 | 1019.3 |
| 20260502162316 | 51 | 302 | 2.0 | 3.0 | 0.00 | 0.01 | 0.01 | 47 | 1019.2 |
| 20260502161813 | 51 | 252 | 0.0 | 0.0 | 0.00 | 0.01 | 0.01 | 55 | 1019.2 |
| 20260502161309 | 51 | 251 | 1.0 | 2.0 | 0.00 | 0.01 | 0.01 | 52 | 1019.3 |
| 20260502160807 | 52 | 346 | 0.0 | 1.0 | 0.00 | 0.01 | 0.01 | 51 | 1019.1 |
| 20260502160306 | 50 | 160 | 0.0 | 0.0 | 0.00 | 0.01 | 0.01 | 54 | 1019.2 |
| 20260502152235 | 50 | 259 | 1.0 | 2.0 | 0.00 | 0.01 | 0.01 | 58 | 1019.3 |
| 20260502151733 | 50 | 287 | 2.0 | 2.0 | 0.00 | 0.01 | 0.01 | 55 | 1019.5 |
| 20260502151230 | 49 | 236 | 2.0 | 2.0 | 0.00 | 0.01 | 0.01 | 55 | 1019.4 |
| 20260502150728 | 49 | 275 | 3.0 | 5.0 | 0.00 | 0.01 | 0.01 | 56 | 1019.5 |
| 20260502150224 | 49 | 265 | 1.0 | 1.0 | 0.00 | 0.01 | 0.01 | 60 | 1019.4 |
| 20260502130612 | 42 | 200 | 1.0 | 1.0 | 0.00 | 0.01 | 0.01 | 82 | 1019.7 |
| 20260502130110 | 41 | 218 | 1.0 | 1.0 | 0.00 | 0.01 | 0.01 | 82 | 1019.7 |
| 20260502123555 | 39 | 280 | 0.0 | 1.0 | 0.00 | 0.00 | 0.00 | 85 | 1019.5 |
| 20260502123052 | 38 | 247 | 0.0 | 0.0 | 0.00 | 0.00 | 0.00 | 87 | 1019.5 |
| 20260502122548 | 37 | 289 | 0.0 | 0.0 | 0.00 | 0.00 | 0.00 | 90 | 1019.4 |
| 20260502122046 | 36 | 272 | 0.0 | 0.0 | 0.00 | 0.00 | 0.00 | 93 | 1019.5 |
| 20260502121543 | 36 | 268 | 0.0 | 0.0 | 0.00 | 0.00 | 0.00 | 96 | 1019.3 |
| 20260502121041 | 35 | 262 | 0.0 | 0.0 | 0.00 | 0.00 | 0.00 | 97 | 1019.6 |
| 20260502120537 | 35 | 257 | 0.0 | 0.0 | 0.00 | 0.00 | 0.00 | 98 | 1019.4 |
| 20260502115532 | 34 | 225 | 0.0 | 0.0 | 0.00 | 0.00 | 0.00 | 98 | 1019.3 |
| 20260502115027 | 33 | 213 | 0.0 | 0.0 | 0.00 | 0.00 | 0.00 | 98 | 1019.2 |
| 20260502114524 | 33 | 213 | 0.0 | 0.0 | 0.00 | 0.00 | 0.00 | 99 | 1019.3 |
| 20260502114020 | 32 | 213 | 0.0 | 0.0 | 0.00 | 0.00 | 0.00 | 99 | 1019.0 |
| 20260502113513 | 32 | 213 | 0.0 | 0.0 | 0.00 | 0.00 | 0.00 | 99 | 1019.1 |
| 20260502113011 | 31 | 213 | 0.0 | 0.0 | 0.00 | 0.00 | 0.00 | 99 | 1018.9 |
| 20260502112508 | 31 | 213 | 0.0 | 0.0 | 0.00 | 0.00 | 0.00 | 99 | 1018.9 |
| 20260502112006 | 31 | 213 | 0.0 | 0.0 | 0.00 | 0.00 | 0.00 | 99 | 1019.0 |
| 20260502111503 | 30 | 213 | 0.0 | 0.0 | 0.00 | 0.00 | 0.00 | 99 | 1018.8 |
| 20260502111000 | 30 | 213 | 0.0 | 0.0 | 0.00 | 0.00 | 0.00 | 99 | 1018.8 |
| 20260502110458 | 30 | 213 | 0.0 | 0.0 | 0.00 | 0.00 | 0.00 | 99 | 1018.8 |
| 20260502105955 | 30 | 213 | 0.0 | 0.0 | 0.00 | 0.00 | 0.00 | 99 | 1018.9 |
| 20260502105453 | 30 | 213 | 0.0 | 0.0 | 0.00 | 0.00 | 0.00 | 99 | 1019.0 |
| 20260502104950 | 30 | 213 | 0.0 | 0.0 | 0.00 | 0.00 | 0.00 | 99 | 1018.7 |
| 20260502104447 | 30 | 213 | 0.0 | 0.0 | 0.00 | 0.00 | 0.00 | 99 | 1019.2 |
| 20260502103944 | 30 | 213 | 0.0 | 0.0 | 0.00 | 0.00 | 0.00 | 99 | 1018.8 |
| 20260502103442 | 30 | 213 | 0.0 | 0.0 | 0.00 | 0.00 | 0.00 | 98 | 1019.1 |
| 20260502102938 | 29 | 213 | 0.0 | 0.0 | 0.00 | 0.00 | 0.00 | 98 | 1018.9 |
| 20260502102436 | 30 | 213 | 0.0 | 0.0 | 0.00 | 0.00 | 0.00 | 98 | 1018.7 |
| 20260502101932 | 30 | 213 | 0.0 | 0.0 | 0.00 | 0.00 | 0.00 | 98 | 1018.7 |
| 20260502101430 | 30 | 213 | 0.0 | 0.0 | 0.00 | 0.00 | 0.00 | 98 | 1018.8 |
| 20260502100929 | 30 | 213 | 0.0 | 0.0 | 0.00 | 0.00 | 0.00 | 98 | 1018.9 |
| 20260502100428 | 30 | 213 | 0.0 | 0.0 | 0.00 | 0.00 | 0.00 | 98 | 1018.7 |
| 20260502091402 | 30 | 213 | 0.0 | 0.0 | 0.00 | 0.00 | 0.00 | 98 | 1018.8 |
| 20260502090859 | 30 | 213 | 0.0 | 0.0 | 0.00 | 0.00 | 0.00 | 98 | 1018.7 |
| 20260502090355 | 30 | 213 | 0.0 | 0.0 | 0.00 | 0.00 | 0.00 | 98 | 1018.7 |
| 20260502071251 | 30 | 213 | 0.0 | 0.0 | 0.00 | 0.00 | 0.00 | 98 | 1019.0 |
| 20260502070749 | 30 | 213 | 0.0 | 0.0 | 0.00 | 0.00 | 0.00 | 98 | 1019.0 |
| 20260502070246 | 31 | 213 | 0.0 | 0.0 | 0.00 | 0.00 | 0.00 | 98 | 1018.8 |
| 20260502065745 | 31 | 213 | 0.0 | 0.0 | 0.00 | 0.00 | 0.00 | 98 | 1018.9 |
| 20260502065242 | 31 | 213 | 0.0 | 0.0 | 0.00 | 0.00 | 0.00 | 98 | 1018.9 |
| 20260502064741 | 31 | 213 | 0.0 | 0.0 | 0.00 | 0.00 | 0.00 | 97 | 1018.9 |
| 20260502064238 | 30 | 213 | 0.0 | 0.0 | 0.00 | 0.00 | 0.00 | 97 | 1019.0 |
| 20260502063735 | 31 | 213 | 0.0 | 0.0 | 0.00 | 0.00 | 0.00 | 97 | 1019.2 |
| 20260502063233 | 31 | 213 | 0.0 | 0.0 | 0.00 | 0.00 | 0.00 | 97 | 1019.1 |
| 20260502062730 | 31 | 213 | 0.0 | 0.0 | 0.00 | 0.00 | 0.00 | 97 | 1019.1 |
| 20260502062228 | 31 | 213 | 0.0 | 0.0 | 0.00 | 0.00 | 0.00 | 97 | 1019.2 |
| 20260502061726 | 31 | 213 | 0.0 | 0.0 | 0.00 | 0.00 | 0.00 | 97 | 1019.3 |
| 20260502061223 | 31 | 213 | 0.0 | 0.0 | 0.00 | 0.00 | 0.00 | 97 | 1019.4 |
| 20260502060718 | 31 | 213 | 0.0 | 0.0 | 0.00 | 0.00 | 0.00 | 97 | 1019.5 |
| 20260502060214 | 31 | 213 | 0.0 | 0.0 | 0.00 | 0.00 | 0.00 | 97 | 1019.2 |
| 20260502055713 | 31 | 213 | 0.0 | 0.0 | 0.00 | 0.00 | 0.00 | 97 | 1019.4 |
| 20260502055210 | 31 | 213 | 0.0 | 0.0 | 0.00 | 0.00 | 0.00 | 97 | 1019.2 |
| 20260502054709 | 31 | 213 | 0.0 | 0.0 | 0.00 | 0.00 | 0.00 | 97 | 1019.3 |
| 20260502054206 | 31 | 213 | 0.0 | 0.0 | 0.00 | 0.00 | 0.00 | 97 | 1019.5 |
| 20260502053703 | 31 | 213 | 0.0 | 1.0 | 0.00 | 0.00 | 0.00 | 97 | 1019.5 |
| 20260502053200 | 31 | 213 | 0.0 | 1.0 | 0.00 | 0.00 | 0.00 | 97 | 1019.4 |
| 20260502052659 | 31 | 213 | 0.0 | 1.0 | 0.00 | 0.00 | 0.00 | 97 | 1019.3 |
| 20260502052157 | 31 | 213 | 0.0 | 1.0 | 0.00 | 0.00 | 0.00 | 97 | 1019.3 |
| 20260502051654 | 31 | 213 | 1.0 | 1.0 | 0.00 | 0.00 | 0.00 | 96 | 1019.3 |
| 20260502051152 | 31 | 213 | 0.0 | 1.0 | 0.00 | 0.00 | 0.00 | 96 | 1019.4 |
| 20260502050648 | 31 | 213 | 1.0 | 1.0 | 0.00 | 0.00 | 0.00 | 96 | 1019.3 |
| 20260502050145 | 31 | 213 | 1.0 | 1.0 | 0.00 | 0.00 | 0.00 | 96 | 1019.3 |
| 20260502045641 | 31 | 213 | 0.0 | 0.0 | 0.00 | 0.04 | 0.04 | 96 | 1019.2 |
| 20260502045139 | 31 | 213 | 0.0 | 0.0 | 0.00 | 0.04 | 0.04 | 96 | 1019.4 |
| 20260502044635 | 31 | 213 | 0.0 | 0.0 | 0.00 | 0.04 | 0.04 | 95 | 1019.3 |
| 20260502044126 | 31 | 213 | 0.0 | 0.0 | 0.00 | 0.04 | 0.04 | 95 | 1019.2 |
| 20260502043624 | 31 | 213 | 0.0 | 0.0 | 0.00 | 0.04 | 0.04 | 95 | 1019.2 |
| 20260502043121 | 31 | 213 | 0.0 | 1.0 | 0.00 | 0.04 | 0.04 | 95 | 1019.1 |
| 20260502042620 | 31 | 213 | 0.0 | 1.0 | 0.00 | 0.04 | 0.04 | 95 | 1019.1 |
| 20260502042118 | 31 | 213 | 1.0 | 1.0 | 0.00 | 0.04 | 0.04 | 95 | 1019.0 |
| 20260502041616 | 31 | 213 | 1.0 | 1.0 | 0.00 | 0.04 | 0.04 | 95 | 1019.0 |
| 20260502041113 | 31 | 212 | 1.0 | 1.0 | 0.00 | 0.04 | 0.04 | 95 | 1018.9 |
| 20260502040609 | 31 | 212 | 1.0 | 1.0 | 0.00 | 0.04 | 0.04 | 95 | 1018.8 |
| 20260502040107 | 32 | 211 | 1.0 | 1.0 | 0.00 | 0.04 | 0.04 | 94 | 1019.1 |
| 20260502035603 | 32 | 211 | 0.0 | 0.0 | 0.00 | 0.04 | 0.04 | 94 | 1019.2 |
| 20260502035100 | 32 | 211 | 0.0 | 0.0 | 0.00 | 0.04 | 0.04 | 94 | 1019.0 |
| 20260502034558 | 32 | 211 | 0.0 | 0.0 | 0.00 | 0.04 | 0.04 | 94 | 1018.8 |
| 20260502034056 | 32 | 211 | 0.0 | 0.0 | 0.00 | 0.04 | 0.04 | 94 | 1018.9 |
| 20260502033554 | 32 | 211 | 0.0 | 0.0 | 0.00 | 0.04 | 0.04 | 94 | 1019.0 |
| 20260502033051 | 32 | 211 | 0.0 | 0.0 | 0.00 | 0.04 | 0.04 | 94 | 1018.9 |
| 20260502032547 | 32 | 211 | 0.0 | 0.0 | 0.00 | 0.04 | 0.04 | 94 | 1019.3 |
| 20260502032044 | 32 | 211 | 0.0 | 0.0 | 0.00 | 0.04 | 0.04 | 94 | 1019.0 |
| 20260502031541 | 32 | 211 | 0.0 | 0.0 | 0.00 | 0.04 | 0.04 | 94 | 1019.0 |
| 20260502031039 | 32 | 211 | 0.0 | 0.0 | 0.00 | 0.04 | 0.04 | 94 | 1018.9 |
| 20260502030538 | 32 | 211 | 0.0 | 0.0 | 0.00 | 0.04 | 0.04 | 94 | 1018.9 |
| 20260502030035 | 32 | 211 | 0.0 | 0.0 | 0.00 | 0.04 | 0.04 | 93 | 1019.1 |
| 20260502025532 | 33 | 211 | 0.0 | 0.0 | 0.00 | 0.04 | 0.04 | 93 | 1018.8 |
| 20260502025030 | 33 | 211 | 0.0 | 0.0 | 0.00 | 0.04 | 0.04 | 93 | 1019.0 |
| 20260502024527 | 33 | 211 | 0.0 | 0.0 | 0.00 | 0.04 | 0.04 | 93 | 1019.0 |